Wind_Speed
3 5 5 2 4 5 3 5 3 5 3 2 13 3 6 6 2 3 22 21 22 24 23 20 18 16 17 18 20 20 19 17 15 15 14 14 13 12 10 10 12 12 12 12 13 13 13 14 14
7 7 3 2 5 4 4 4 3 4 8 21 12 9 7 3 5 20 22 23 23 24 23 22 19 18 20 21 20 19 18 17 17 17 14 13 11 9 9 11 13 12 12 13 13 14 14 15 14
5 6 3 3 3 2 1 2 2 11 12 6 6 10 4 2 16 24 26 25 25 24 23 22 20 21 21 21 19 18 17 17 17 17 15 12 11 11 10 10 12 11 11 11 12 12 14 15 15
4 2 1 5 3 2 4 2 5 6 7 8 17 6 8 11 18 19 26 23 23 22 21 21 21 22 22 20 19 18 17 16 15 13 12 10 9 9 10 9 10 11 11 11 11 11 12 13 13
3 1 5 3 3 2 3 5 7 2 5 9 5 4 6 5 14 25 24 21 22 22 20 20 20 21 20 19 17 16 15 14 13 13 11 9 8 8 8 8 10 12 11 11 11 11 12 11 11
1 2 4 1 3 3 3 9 2 5 8 9 11 9 4 14 22 24 21 19 19 19 19 19 19 19 19 17 15 14 13 13 12 12 10 9 8 8 8 8 8 11 12 11 10 11 12 12 11
2 4 1 1 3 3 3 5 3 2 9 7 7 5 11 21 21 22 19 19 18 17 17 18 18 17 16 14 13 12 12 12 11 11 9 9 7 7 8 8 8 9 10 12 10 11 11 12 11
1 4 2 3 2 3 7 4 14 6 5 11 6 7 9 28 22 20 17 17 17 17 17 18 17 15 14 13 11 10 12 13 12 11 9 7 7 7 8 8 8 9 9 10 10 11 11 12 11
1 4 0 2 2 4 11 4 3 5 12 3 2 15 27 28 24 19 20 18 17 17 18 16 13 13 12 10 10 11 13 12 12 13 8 5 5 7 8 7 7 8 11 11 11 12 11 11 11
3 3 7 5 5 5 8 4 6 4 4 5 13 17 31 27 24 23 22 20 18 18 18 15 13 13 12 10 10 12 12 13 13 13 9 6 6 7 8 10 11 12 12 12 12 12 13 13 13
4 5 5 3 13 18 10 5 4 11 1 7 20 30 30 26 24 22 19 15 14 16 18 16 14 13 11 10 11 12 12 11 13 14 10 5 5 6 7 9 13 14 14 15 14 13 13 12 12
1 1 4 13 14 12 8 12 8 3 2 10 23 29 28 25 23 21 18 15 15 15 14 14 14 12 9 6 10 10 11 12 13 14 12 10 8 7 10 9 11 14 14 15 15 15 14 14 13
2 4 6 16 18 14 15 8 5 8 11 19 23 23 23 22 19 18 15 15 15 13 10 11 11 10 7 6 5 9 11 11 12 14 15 13 14 11 10 11 11 15 18 19 17 17 16 16 17
1 8 7 16 13 12 11 7 3 7 14 19 22 21 20 20 19 17 17 17 18 15 12 10 10 6 10 12 6 2 6 12 12 15 15 14 14 13 12 11 13 13 17 20 22 21 21 21 23
11 6 6 5 6 4 23 1 4 18 18 20 20 21 19 17 15 16 15 15 16 14 12 14 12 11 12 12 13 10 7 7 10 12 15 16 17 16 14 13 14 14 14 15 20 22 21 22 21
5 6 3 4 5 11 2 2 2 21 24 20 21 21 21 20 18 15 15 14 13 16 14 13 16 12 10 12 12 14 11 12 14 14 14 14 15 16 17 17 16 14 16 18 20 21 21 22 20
6 2 2 1 9 5 0 3 8 24 22 19 22 23 22 21 21 18 17 15 16 14 14 14 14 14 9 9 12 16 19 18 16 14 15 15 16 15 16 17 16 15 17 18 19 19 19 20 21
1 3 3 6 6 5 7 4 10 23 21 22 24 24 25 23 22 20 17 17 17 18 16 17 16 14 13 12 12 14 16 18 20 19 15 16 14 15 18 19 18 18 18 19 20 18 19 19 16
3 5 8 6 7 9 11 6 14 21 20 20 23 22 26 27 18 20 19 18 18 20 18 16 16 14 13 14 14 13 14 13 16 16 13 16 19 18 15 14 15 17 18 16 16 18 18 19 16
6 5 3 4 5 10 7 4 11 18 25 25 23 24 28 26 20 17 19 21 22 19 17 13 12 15 15 15 16 19 19 19 17 12 13 17 23 12 15 17 16 17 17 15 15 15 15 16 15
3 3 0 3 5 5 5 3 5 9 16 22 22 26 24 23 18 12 15 18 24 26 22 17 13 16 17 18 18 19 21 22 16 16 17 17 15 11 15 17 17 15 18 15 14 14 15 14 13
5 5 4 4 3 3 2 4 5 5 11 11 20 23 18 19 19 16 9 19 25 30 26 24 20 19 21 25 23 23 22 21 13 13 13 15 18 13 10 10 10 14 15 14 14 15 16 15 16
6 2 3 3 5 5 2 3 5 1 8 15 16 18 20 24 25 23 23 18 15 27 29 23 23 19 19 24 23 21 16 10 13 14 16 13 8 7 9 9 12 12 12 13 14 14 16 17 17
5 4 6 4 3 2 3 3 5 4 4 3 6 17 27 31 30 19 9 8 12 7 13 19 19 19 21 23 25 25 10 7 12 12 11 11 8 6 9 9 8 10 9 10 13 11 13 17 19
6 6 4 4 3 5 3 3 7 6 5 6 12 22 24 29 21 19 11 4 9 16 12 11 4 5 17 11 21 13 9 8 13 13 12 11 8 7 6 8 8 7 9 9 9 10 13 13 15
5 7 5 3 2 4 1 3 5 2 5 4 11 20 20 20 18 19 14 10 9 11 14 7 4 7 17 8 27 10 11 9 9 9 10 10 10 11 11 10 11 10 9 8 11 11 11 12 14
3 3 4 7 3 3 3 5 8 2 2 4 11 16 16 15 17 18 13 4 9 10 8 7 6 19 11 3 11 6 8 8 10 12 11 10 12 12 12 14 15 15 14 14 14 14 13 13 11
3 5 3 3 4 3 4 4 5 6 7 3 4 7 10 10 12 13 12 8 9 13 7 6 5 6 13 2 10 8 8 9 10 11 12 14 15 17 16 15 15 17 17 15 15 17 16 14 15
1 1 6 5 4 5 3 6 6 10 7 7 5 5 7 6 5 6 8 4 7 6 3 1 7 13 25 8 15 11 13 14 14 16 17 18 18 18 19 19 20 19 19 20 19 20 19 19 18
3 7 6 5 4 2 2 5 3 4 8 10 8 12 9 6 6 10 11 9 9 7 4 2 13 19 17 13 10 13 16 17 18 17 16 17 18 18 18 19 18 18 18 20 22 23 23 22 23
Wind_Direction
45 91 98 45 50 63 355 334 329 97 91 106 166 119 91 52 45 156 140 144 143 141 136 147 144 138 139 139 138 135 133 133 133 134 134 139 138 136 132 136 134 125 117 118 123 121 119 115 116
3 55 48 344 73 51 308 327 297 55 115 109 80 92 52 77 100 139 141 145 145 142 140 147 152 144 141 138 136 134 134 135 139 136 137 144 147 143 135 135 135 130 129 124 123 122 122 121 117
359 26 3 91 98 104 263 321 98 117 132 114 107 70 62 24 134 139 145 144 149 147 147 150 154 152 146 142 138 137 140 144 146 145 149 152 151 142 142 138 139 139 138 133 124 122 125 123 126
5 6 357 71 80 36 166 157 109 124 75 82 104 69 70 103 131 146 145 144 151 152 153 153 158 159 152 148 145 147 147 148 151 147 151 154 153 148 149 141 140 138 142 138 133 132 133 133 132
13 39 42 64 48 31 61 145 155 50 78 98 96 101 89 156 156 150 147 145 154 154 156 156 161 162 159 159 157 157 158 158 158 158 157 162 153 154 158 157 152 148 149 147 144 144 145 144 143
9 71 51 61 83 59 64 160 160 70 96 113 93 95 79 138 155 152 150 152 160 158 159 159 161 162 165 165 167 168 166 165 163 159 158 156 148 158 170 170 165 161 162 157 156 158 158 157 158
112 75 81 309 105 134 155 134 99 97 114 92 117 93 135 149 153 151 152 157 161 162 162 161 161 161 165 171 176 177 173 172 171 165 155 151 156 170 174 179 175 169 166 169 167 171 172 173 174
190 91 62 346 147 66 143 110 131 97 62 128 111 143 161 161 159 154 157 159 165 167 168 166 166 170 178 179 181 180 185 183 176 171 160 153 171 182 176 178 185 178 179 183 184 180 179 181 189
182 62 102 186 165 121 136 126 61 107 116 84 160 151 164 160 160 162 164 164 170 174 176 177 181 183 185 189 190 193 190 187 183 179 175 176 205 197 192 191 205 217 212 205 196 191 194 197 204
110 113 213 190 144 130 142 114 120 134 105 71 106 142 158 163 169 169 169 172 178 185 186 190 195 197 196 200 197 195 192 184 194 192 197 210 212 216 225 238 241 236 223 216 211 208 208 209 212
195 183 174 117 126 130 123 115 134 131 224 197 157 151 160 167 172 178 178 187 186 189 196 200 205 208 209 213 214 208 205 202 209 207 212 228 219 232 248 253 248 242 229 224 220 222 224 222 224
207 358 94 132 130 124 133 125 123 313 181 166 156 157 161 173 181 187 188 180 185 188 203 209 213 218 222 221 239 234 225 221 221 224 228 243 252 279 260 254 247 240 235 230 228 228 231 233 237
80 28 47 139 138 138 133 106 115 92 133 146 155 165 172 180 190 198 202 202 192 184 182 192 205 222 222 231 232 246 243 243 237 236 239 251 262 275 274 255 261 249 239 237 237 238 241 247 251
184 86 82 122 128 128 116 131 63 149 157 157 164 173 184 190 193 204 203 205 207 205 202 204 197 223 215 236 236 299 237 241 256 248 249 256 262 263 271 264 260 257 246 242 240 244 251 260 260
122 91 66 107 127 100 120 74 152 167 172 174 179 183 188 195 199 208 208 209 210 209 212 221 226 233 246 259 251 260 273 287 281 275 266 266 265 264 261 262 256 252 249 244 246 252 256 258 258
63 74 113 233 145 169 76 217 186 173 177 189 192 197 204 202 203 210 214 214 222 223 222 230 239 251 265 271 276 270 273 279 291 293 276 266 266 265 262 260 259 257 253 253 251 253 255 259 262
11 153 209 200 205 166 163 181 190 183 187 194 202 211 216 223 224 222 224 227 226 229 231 235 242 254 266 273 280 279 281 286 284 271 267 260 257 262 264 263 261 254 253 256 257 259 257 259 263
349 21 277 234 204 183 179 231 168 187 199 204 207 215 224 227 230 226 224 230 235 237 243 245 249 255 264 267 272 277 275 278 281 286 290 303 282 264 257 262 261 261 260 259 260 264 261 262 264
178 211 236 251 217 175 200 173 186 191 209 215 214 222 226 227 229 240 240 237 239 238 242 241 248 249 256 254 261 275 282 299 301 335 320 293 300 295 286 282 281 277 262 268 265 259 261 260 260
193 232 262 283 296 177 154 192 196 192 212 215 210 214 227 238 243 260 256 252 250 250 250 250 252 254 260 269 277 281 293 295 303 310 301 304 287 293 301 290 279 271 267 258 256 255 257 260 253
217 248 222 272 359 42 108 336 194 217 215 225 228 228 226 233 237 238 299 267 257 251 249 251 260 268 267 273 273 278 291 290 311 317 321 324 321 305 290 294 288 274 263 261 265 259 256 254 254
309 210 254 142 124 217 181 257 238 231 216 231 225 226 205 194 194 171 194 311 258 248 244 244 254 268 270 269 272 275 284 292 304 327 326 327 327 332 322 311 296 288 282 283 269 268 265 258 252
239 291 279 322 143 103 273 88 274 120 228 224 219 203 191 197 199 193 163 249 263 247 248 251 254 270 284 280 279 281 293 307 324 324 324 322 329 345 353 343 333 320 299 297 289 274 270 268 260
254 26 35 54 95 56 305 124 286 207 227 275 202 200 193 198 203 193 180 192 239 244 257 250 252 262 265 279 286 286 311 312 305 308 314 315 326 327 320 323 332 336 314 306 306 288 271 271 267
76 60 341 353 17 211 300 81 243 269 298 244 214 189 198 204 179 183 197 201 246 253 260 261 240 342 323 294 329 284 272 288 292 303 310 320 331 343 339 323 325 323 320 318 303 299 292 284 277
183 155 152 250 237 281 318 231 254 235 338 350 170 179 192 197 191 206 229 231 222 231 241 199 263 315 313 328 298 302 279 280 291 310 314 323 325 329 324 318 314 315 314 311 303 302 300 289 283
167 177 184 106 17 73 290 293 301 288 65 85 129 172 179 187 181 189 195 210 257 236 219 244 317 213 297 255 279 282 262 272 286 289 296 304 306 305 306 307 306 303 300 297 294 294 296 296 296
156 155 75 15 136 222 287 274 240 256 236 161 178 156 191 201 187 202 211 244 247 233 235 303 319 246 194 316 313 318 302 293 300 303 306 308 308 303 300 297 293 289 289 286 286 286 287 284 287
58 31 54 115 118 159 170 260 218 214 191 189 197 146 155 163 213 205 207 227 185 188 174 193 208 190 210 262 295 318 322 324 317 315 311 307 305 306 306 302 298 291 283 279 277 278 275 276 281
152 210 153 122 228 143 158 267 308 192 143 180 144 140 141 143 184 180 163 144 135 135 138 153 177 204 219 246 285 313 319 317 313 309 312 317 318 318 317 315 312 305 297 289 282 276 272 270 270
Height
1483 1482 1482 1483 1492 1493 1504 1495 1487 1493 1495 1495 1499 1499 1503 1508 1509 1518 1515 1518 1520 1522 1525 1527 1531 1532 1533 1536 1537 1539 1541 1543 1545 1546 1548 1549 1549 1550 1551 1552 1553 1554 1554 1555 1557 1557 1558 1559 1560
1483 1483 1485 1483 1501 1513 1509 1493 1491 1493 1495 1497 1500 1501 1504 1511 1510 1513 1516 1519 1523 1525 1527 1530 1531 1535 1536 1538 1540 1542 1543 1545 1547 1548 1550 1551 1551 1552 1552 1553 1554 1555 1556 1558 1558 1559 1560 1561 1562
1484 1484 1486 1488 1502 1512 1506 1493 1491 1495 1496 1497 1502 1504 1508 1512 1511 1515 1517 1521 1524 1527 1529 1531 1534 1536 1538 1540 1542 1543 1545 1547 1548 1549 1550 1552 1552 1552 1554 1555 1556 1556 1558 1559 1560 1561 1562 1562 1563
1485 1486 1487 1497 1500 1494 1494 1494 1494 1497 1498 1498 1501 1509 1513 1515 1516 1518 1521 1523 1526 1529 1531 1533 1535 1538 1540 1542 1544 1546 1547 1549 1551 1552 1553 1553 1553 1553 1555 1556 1557 1557 1560 1561 1562 1563 1564 1565 1565
1486 1486 1496 1500 1497 1493 1493 1495 1496 1497 1499 1502 1503 1512 1515 1518 1519 1521 1523 1526 1529 1531 1534 1536 1538 1540 1542 1544 1546 1547 1549 1551 1552 1553 1554 1554 1554 1555 1556 1557 1558 1559 1561 1562 1563 1564 1565 1566 1566
1486 1487 1508 1512 1499 1496 1496 1497 1499 1499 1501 1505 1508 1511 1517 1519 1521 1524 1526 1529 1532 1534 1535 1537 1540 1542 1544 1546 1548 1549 1550 1551 1552 1553 1554 1555 1555 1555 1556 1558 1558 1560 1562 1563 1564 1565 1566 1567 1567
1487 1492 1504 1502 1503 1501 1499 1500 1501 1502 1503 1506 1508 1513 1520 1521 1524 1525 1528 1531 1534 1536 1538 1540 1542 1544 1546 1547 1548 1549 1551 1552 1553 1554 1555 1555 1556 1556 1557 1559 1559 1561 1562 1563 1564 1565 1566 1567 1568
1486 1489 1499 1499 1503 1504 1499 1500 1501 1501 1504 1506 1507 1513 1520 1520 1524 1527 1530 1533 1535 1537 1540 1541 1543 1545 1547 1548 1549 1550 1552 1553 1554 1555 1555 1556 1556 1556 1558 1559 1560 1561 1562 1563 1564 1565 1566 1567 1568
1486 1499 1507 1499 1499 1501 1499 1500 1503 1503 1504 1506 1507 1508 1513 1518 1523 1527 1530 1533 1536 1538 1540 1542 1543 1545 1546 1548 1549 1551 1552 1553 1554 1555 1556 1556 1556 1556 1557 1559 1560 1561 1562 1562 1563 1564 1565 1567 1567
1487 1501 1496 1488 1490 1495 1498 1501 1502 1504 1505 1507 1506 1509 1513 1517 1521 1525 1528 1531 1534 1537 1539 1542 1544 1546 1547 1549 1549 1550 1551 1552 1553 1554 1555 1556 1556 1556 1557 1558 1559 1560 1561 1562 1563 1564 1564 1565 1566
1486 1493 1486 1488 1489 1492 1498 1501 1501 1503 1505 1506 1506 1509 1515 1519 1522 1525 1528 1531 1533 1537 1539 1541 1544 1546 1547 1549 1549 1550 1551 1552 1553 1554 1555 1556 1556 1557 1557 1557 1557 1558 1559 1560 1562 1562 1563 1564 1565
1487 1483 1486 1488 1492 1496 1499 1501 1503 1504 1504 1505 1509 1512 1515 1519 1522 1525 1527 1529 1532 1535 1538 1542 1544 1546 1546 1548 1549 1550 1551 1552 1553 1554 1555 1555 1555 1556 1556 1556 1556 1557 1558 1559 1560 1561 1562 1563 1563
1485 1488 1490 1491 1493 1496 1499 1504 1505 1507 1508 1510 1513 1516 1518 1520 1523 1527 1530 1533 1535 1537 1539 1540 1544 1546 1548 1547 1547 1549 1551 1552 1553 1553 1554 1554 1555 1555 1555 1555 1555 1555 1556 1557 1558 1559 1560 1561 1561
1486 1489 1495 1495 1497 1499 1501 1504 1505 1510 1511 1513 1515 1517 1519 1522 1525 1527 1529 1532 1535 1537 1539 1541 1544 1544 1545 1545 1547 1548 1549 1551 1552 1552 1553 1553 1553 1553 1553 1553 1553 1553 1554 1555 1556 1556 1557 1558 1558
1488 1494 1497 1499 1499 1501 1502 1509 1508 1509 1512 1513 1516 1517 1519 1522 1524 1526 1529 1531 1534 1536 1539 1540 1541 1542 1543 1544 1546 1548 1549 1549 1550 1551 1551 1552 1552 1552 1551 1551 1551 1552 1553 1553 1553 1553 1554 1554 1554
1493 1496 1511 1500 1499 1501 1502 1517 1508 1509 1511 1513 1515 1517 1518 1519 1520 1524 1527 1530 1533 1535 1536 1538 1539 1540 1541 1543 1544 1546 1547 1547 1548 1549 1549 1550 1550 1550 1549 1549 1549 1550 1550 1550 1550 1550 1550 1550 1551
1504 1515 1509 1504 1499 1501 1505 1512 1506 1510 1511 1513 1515 1515 1518 1521 1522 1524 1526 1527 1530 1533 1534 1535 1537 1538 1539 1541 1543 1544 1544 1544 1545 1545 1546 1547 1547 1547 1546 1546 1547 1547 1547 1547 1547 1547 1546 1546 1547
1513 1511 1506 1507 1499 1501 1506 1507 1505 1507 1510 1508 1510 1514 1516 1519 1519 1522 1524 1527 1529 1531 1534 1535 1536 1537 1538 1539 1540 1541 1542 1542 1543 1545 1544 1543 1542 1542 1543 1543 1543 1544 1543 1543 1543 1543 1543 1542 1542
1503 1510 1508 1497 1489 1494 1499 1504 1504 1505 1508 1507 1508 1513 1513 1514 1517 1522 1526 1528 1529 1530 1531 1532 1533 1535 1536 1535 1535 1537 1539 1541 1543 1543 1541 1540 1541 1539 1539 1538 1539 1539 1539 1539 1539 1539 1538 1538 1539
1502 1503 1505 1492 1484 1490 1498 1503 1501 1502 1499 1503 1504 1508 1510 1515 1520 1526 1526 1529 1529 1529 1528 1529 1531 1532 1533 1535 1535 1537 1539 1540 1542 1542 1540 1540 1521 1538 1536 1535 1535 1535 1535 1535 1535 1535 1535 1535 1535
1499 1499 1500 1502 1493 1494 1500 1509 1506 1500 1501 1501 1504 1505 1512 1517 1521 1527 1527 1527 1528 1528 1528 1528 1529 1531 1533 1535 1535 1535 1536 1537 1539 1538 1538 1536 1534 1533 1535 1533 1532 1532 1531 1531 1531 1531 1531 1532 1531
1503 1489 1489 1494 1505 1521 1497 1529 1509 1501 1499 1498 1500 1503 1509 1509 1509 1516 1518 1524 1524 1525 1524 1525 1529 1532 1533 1534 1532 1532 1534 1535 1536 1536 1535 1533 1532 1532 1531 1532 1532 1531 1527 1529 1528 1528 1528 1528 1527
1495 1483 1488 1489 1504 1509 1507 1518 1508 1502 1503 1496 1495 1501 1503 1505 1506 1505 1503 1511 1519 1522 1523 1526 1529 1530 1531 1530 1531 1531 1530 1533 1534 1534 1533 1532 1530 1528 1528 1527 1528 1527 1527 1527 1526 1525 1525 1524 1523
1479 1484 1492 1502 1509 1527 1513 1515 1516 1508 1499 1494 1495 1496 1497 1497 1498 1511 1513 1515 1519 1521 1521 1522 1523 1526 1528 1527 1527 1529 1529 1530 1531 1529 1529 1529 1528 1526 1526 1525 1524 1524 1525 1524 1524 1523 1522 1522 1521
1485 1503 1532 1527 1532 1534 1517 1519 1510 1497 1493 1492 1489 1490 1494 1497 1505 1513 1515 1517 1521 1521 1519 1519 1519 1520 1523 1526 1510 1522 1528 1527 1529 1527 1526 1525 1524 1523 1523 1523 1523 1521 1521 1523 1522 1522 1520 1519 1516
1489 1499 1529 1533 1541 1530 1511 1517 1502 1493 1492 1488 1486 1489 1493 1499 1508 1514 1517 1514 1517 1519 1515 1516 1515 1522 1525 1525 1525 1531 1530 1528 1527 1526 1526 1524 1523 1521 1521 1520 1522 1521 1519 1519 1521 1519 1518 1516 1515
1488 1501 1492 1524 1530 1532 1530 1511 1491 1487 1490 1489 1491 1492 1497 1502 1508 1511 1511 1514 1517 1515 1518 1514 1514 1514 1522 1519 1532 1531 1529 1526 1526 1526 1525 1524 1522 1520 1518 1519 1519 1520 1517 1516 1516 1517 1515 1513 1513
1476 1481 1506 1517 1531 1534 1531 1521 1511 1493 1488 1490 1492 1495 1497 1502 1507 1509 1512 1513 1512 1513 1514 1511 1513 1511 1519 1524 1528 1529 1527 1525 1525 1525 1524 1522 1520 1518 1516 1516 1515 1515 1514 1512 1512 1513 1511 1510 1509
1485 1491 1502 1509 1518 1536 1542 1524 1485 1484 1486 1491 1492 1497 1499 1501 1502 1505 1507 1510 1511 1512 1511 1512 1514 1515 1518 1522 1526 1529 1527 1524 1524 1523 1521 1520 1517 1514 1512 1511 1511 1510 1509 1508 1507 1508 1508 1507 1505
1471 1481 1488 1512 1515 1526 1523 1510 1477 1478 1484 1488 1495 1500 1501 1502 1502 1504 1508 1509 1510 1510 1510 1513 1515 1519 1521 1524 1525 1527 1524 1524 1523 1522 1520 1516 1514 1510 1508 1507 1506 1505 1503 1502 1502 1502 1502 1500 1499